Tracking 27380 objects as of 6-Jun-2023
HD Live streaming from Space Station
objects crossing your sky now

HELIOS 1A

Track HELIOS 1A now!
10-day predictions
HELIOS 1A is classified as:


NORAD ID: 23605
Int'l Code: 1995-033A
Perigee: 586.6 km
Apogee: 603.7 km
Inclination: 98.3 °
Period: 96.4 minutes
Semi major axis: 6966 km
RCS: Unknown
Launch date: July 7, 1995
Source: France (FR)
Launch site: FRENCH GUIANA (FRGUI)

Optical reconnaissance; cannot see through clouds or at night.
Your satellite tracking list
Your tracking list is empty




NASA's NSSDC Master Catalog

Two Line Element Set (TLE):
1 23605U 95033A   23035.66508168 0.00003600  00000-0  34485-3 0    08
2 23605  98.2816 194.9797 0012284 174.5417 185.4581 14.93172874    02
Source of the keplerian elements: McCants